[[{"header":{"parameterUnit":"m.s-1","parameterCategory":1,"la1":30.2991,"la2":30.254,"lo1":-89.0895,"lo2":-89.0444,"dy":0.0017,"dx":0.0017,"nx":28,"ny":28,"refTime":"2024-09-30T21:00:00:Z","depth":0,"parameterNumber":2,"parameterNumberName":"U-component_of_WINDS"},"data":[0,0,0,0,0,0,0,0,0,0,0,0,0,0,0,0,0,0,0,0,0,0,0,0,0,0,0,0,0,0,0,0,0,0,0,0,0,0,0,0,0,0,0,0,0,0,0,0,0,0,0,0,0,0,0,0,0,0,0.251,0.2511,0,0.2557,0.2557,0.2558,0.2619,0.262,0.2621,0.2622,0.2669,0.2669,0.267,0,0,0,0,0,0,0,0,0,0,0,0,0,0.2475,0.2475,0.251,0.2511,0.2511,0.2557,0.2557,0.2558,0.2619,0.262,0.2622,0.2623,0.2669,0.2669,0.267,0,0,0,0,0,0,0,0,0,0,0,0,0,0.2502,0.2475,0.251,0.2547,0.2551,0.2557,0.2557,0.2558,0.2619,0.262,0.2622,0.2623,0.2669,0.2669,0.267,0.2642,0,0,0.2671,0.2671,0,0,0,0,0,0,0,0,0.2501,0.2504,0.2541,0.2545,0.2549,0.2584,0.2562,0.2586,0.2618,0.2593,0.2622,0.2624,0.2639,0.2642,0.2648,0.2644,0.2646,0.2671,0.2671,0.2671,0.2672,0,0,0,0,0,0,0,0.2499,0.2502,0.2529,0.2542,0.2547,0.2562,0.2567,0.2567,0.2607,0.2595,0.26,0.2605,0.2642,0.2647,0.2649,0.2647,0.2671,0.2671,0.2672,0.2672,0.2624,0.2622,0,0,0,0,0,0,0.2491,0.25,0.2527,0.253,0.2528,0.2561,0.2568,0.2571,0.2607,0.2614,0.2603,0.2607,0.2646,0.2649,0.2651,0.2621,0.2671,0.2672,0.2672,0.2625,0.2623,0.2622,0,0,0,0,0,0,0.249,0.2493,0.2525,0.2516,0.2522,0.256,0.2564,0.2571,0.2577,0.2613,0.2621,0.2601,0.2647,0.265,0.2644,0.2624,0.2672,0.2672,0.2627,0.2625,0.2623,0.2561,0,0,0,0,0,0,0.2489,0.2492,0.2482,0.2516,0.2522,0.2517,0.2562,0.2571,0.2577,0.2583,0.2613,0.262,0.2648,0.2643,0.2644,0.2625,0.2673,0.2629,0.2626,0.2623,0.2565,0.2557,0.255,0,0,0,0,0,0.2487,0.2463,0.2481,0.2484,0.251,0.2516,0.2519,0.2553,0.2575,0.2565,0.2589,0.2619,0.2626,0.2642,0.2644,0.2624,0.263,0.2627,0.2623,0.2568,0.2558,0.255,0,0,0,0,0,0,0.2425,0.2468,0.2489,0.2474,0.2491,0.2526,0.2515,0.2541,0.2552,0.2557,0.2598,0.2604,0.2592,0.2608,0.2625,0.26,0.2633,0.2629,0.259,0.2581,0.2573,0.2569,0.2673,0,0,0,0,0,0.241,0.2411,0.2448,0.2432,0.2439,0.2475,0.2479,0.2504,0.2523,0.253,0.2553,0.257,0.2577,0.258,0.2588,0.2568,0.2576,0.2556,0.2548,0.2542,0.2538,0.2529,0.2521,0.261,0.261,0.261,0,0,0.2378,0.2401,0.24,0.242,0.2436,0.2436,0.2481,0.2479,0.248,0.253,0.2525,0.2543,0.2565,0.2552,0.2547,0.2564,0.2516,0.2537,0.2532,0.2532,0.2525,0.2516,0.2509,0.2608,0.2608,0.2609,0,0,0.232,0.2338,0.2326,0.2341,0.2365,0.239,0.2387,0.2418,0.2432,0.2428,0.2466,0.2467,0.2477,0.2491,0.25,0.2448,0.2476,0.245,0.241,0.2401,0.2394,0.2388,0.2369,0.2362,0.2446,0.2446,0.2446,0,0.2277,0.2279,0.2317,0.2313,0.2321,0.2367,0.2355,0.2368,0.2393,0.2397,0.2417,0.243,0.2448,0.2439,0.2427,0.2432,0.243,0.2446,0.2392,0.2386,0.2381,0.2364,0.2357,0.2443,0.2443,0.2444,0.2444,0,0.2225,0.2227,0.2214,0.2238,0.2244,0.2237,0.2273,0.2275,0.23,0.2322,0.2318,0.2341,0.2355,0.2355,0.2378,0.2349,0.2359,0.2384,0.2418,0.2369,0.2353,0.2347,0.2438,0.2439,0.244,0.2441,0,0,0.2128,0.2173,0.2168,0.2179,0.2209,0.2211,0.2206,0.222,0.2221,0.2237,0.2233,0.2241,0.2265,0.2275,0.2301,0.2293,0.225,0.2319,0.232,0.2305,0.222,0.22,0.2191,0.2269,0.2268,0.2267,0.2218,0,0.2075,0.2069,0.2103,0.2087,0.2089,0.2133,0.2129,0.2147,0.2168,0.2172,0.2196,0.2201,0.2232,0.2238,0.2232,0.2256,0.2234,0.2261,0.2266,0.2266,0.2258,0.2183,0.2162,0.2114,0.2212,0.2211,0.221,0,0.2012,0.2026,0.201,0.2042,0.2044,0.2039,0.2055,0.2059,0.208,0.2096,0.2108,0.2137,0.2135,0.2167,0.2164,0.2182,0.2187,0.2199,0.2198,0.2199,0.2234,0.2182,0.21,0.2092,0.2201,0.2202,0.2203,0,0.1942,0.1956,0.1949,0.1958,0.1995,0.199,0.2005,0.2029,0.2035,0.2049,0.2053,0.2066,0.2073,0.2083,0.2115,0.2136,0.2108,0.2144,0.2121,0.212,0.2113,0.2112,0.2029,0.2117,0.2117,0.2117,0.2117,0,0.1879,0.1868,0.1918,0.1914,0.1903,0.1942,0.193,0.195,0.197,0.197,0.201,0.2009,0.2053,0.2057,0.2083,0.2076,0.2079,0.2092,0.2098,0.2088,0.2086,0.209,0.2094,0.2115,0.2115,0.2116,0.2116,0,0.1799,0.1832,0.1827,0.1863,0.1872,0.1862,0.1892,0.189,0.1914,0.1913,0.1916,0.1953,0.196,0.1994,0.2009,0.2027,0.2011,0.2025,0.2004,0.2008,0.1983,0.1985,0.1899,0.189,0.1984,0.1983,0.1982,0,0.1756,0.1749,0.1784,0.1787,0.18,0.1805,0.1811,0.185,0.1856,0.188,0.1875,0.1885,0.1895,0.1905,0.1933,0.1945,0.1959,0.1929,0.1961,0.1951,0.1958,0.1958,0.1957,0.1921,0.192,0.1919,0.1918,0,0.1676,0.1693,0.1702,0.1716,0.1723,0.1736,0.1751,0.1751,0.1795,0.1799,0.1807,0.1815,0.1831,0.184,0.1857,0.1873,0.1902,0.1908,0.1903,0.1892,0.1879,0.1885,0.1984,0.1909,0.191,0.1911,0.1911,0.1912,0.1613,0.1609,0.1633,0.1641,0.1657,0.167,0.167,0.1694,0.1701,0.1717,0.174,0.1745,0.1768,0.1794,0.1807,0.1812,0.1828,0.1822,0.182,0.1817,0.1812,0.1879,0.1815,0.1815,0.1816,0.1816,0.1816,0,0.1535,0.1553,0.156,0.1581,0.1587,0.1615,0.1634,0.1637,0.1641,0.166,0.167,0.1679,0.1689,0.1719,0.1732,0.173,0.1743,0.1732,0.1732,0.1735,0.1796,0.1799,0.172,0.172,0.172,0.172,0.172,0.172,0.1495,0.1489,0.1509,0.1512,0.153,0.1535,0.1543,0.1556,0.1571,0.158,0.1589,0.1608,0.1632,0.1647,0.1657,0.1666,0.1669,0.1652,0.1665,0.1721,0.1731,0.1739,0.1742,0.1653,0.1652,0.1603,0.1603,0.1602]},{"header":{"parameterUnit":"m.s-1","parameterCategory":1,"la1":30.2991,"la2":30.254,"lo1":-89.0895,"lo2":-89.0444,"dy":0.0017,"dx":0.0017,"nx":28,"ny":28,"refTime":"2024-09-30T21:00:00:Z","depth":0,"parameterNumber":3,"parameterNumberName":"V-component_of_WINDS"},"data":[0,0,0,0,0,0,0,0,0,0,0,0,0,0,0,0,0,0,0,0,0,0,0,0,0,0,0,0,0,0,0,0,0,0,0,0,0,0,0,0,0,0,0,0,0,0,0,0,0,0,0,0,0,0,0,0,0,0,2.379,2.379,0,2.382,2.382,2.382,2.3869,2.387,2.387,2.3871,2.3898,2.3898,2.3898,0,0,0,0,0,0,0,0,0,0,0,0,0,2.3769,2.3769,2.379,2.379,2.379,2.3819,2.382,2.382,2.3868,2.387,2.3871,2.3872,2.3898,2.3898,2.3898,0,0,0,0,0,0,0,0,0,0,0,0,0,2.3786,2.3769,2.379,2.3818,2.3821,2.3819,2.382,2.382,2.3868,2.387,2.3871,2.3872,2.3898,2.3898,2.3898,2.3869,0,0,2.3897,2.3897,0,0,0,0,0,0,0,0,2.3785,2.3787,2.3813,2.3816,2.3819,2.3842,2.3823,2.3837,2.3868,2.385,2.3871,2.3873,2.3878,2.3879,2.3882,2.3871,2.3872,2.3897,2.3897,2.3897,2.3897,0,0,0,0,0,0,0,2.3784,2.3786,2.3801,2.3814,2.3817,2.3828,2.3832,2.3825,2.3856,2.3852,2.3855,2.3858,2.388,2.3882,2.3883,2.3872,2.3897,2.3897,2.3897,2.3897,2.3836,2.3834,0,0,0,0,0,0,2.3779,2.3785,2.38,2.3802,2.3805,2.3827,2.3831,2.3833,2.3856,2.3861,2.3857,2.3861,2.3882,2.3883,2.3884,2.385,2.3897,2.3897,2.3896,2.3837,2.3835,2.3834,0,0,0,0,0,0,2.3779,2.378,2.3799,2.3795,2.3798,2.3826,2.3827,2.3833,2.3835,2.386,2.3866,2.3854,2.3883,2.3884,2.3872,2.3852,2.3897,2.3896,2.3839,2.3837,2.3835,2.3783,0,0,0,0,0,0,2.3778,2.378,2.3771,2.3794,2.3798,2.3788,2.3826,2.3833,2.3835,2.384,2.3859,2.3863,2.3884,2.3872,2.3872,2.3852,2.3896,2.3841,2.3838,2.3835,2.3786,2.3779,2.3773,0,0,0,0,0,2.3777,2.3755,2.377,2.3772,2.3787,2.3787,2.3789,2.3814,2.3834,2.3823,2.3839,2.3863,2.3854,2.3871,2.3871,2.385,2.3842,2.3839,2.3835,2.3789,2.3781,2.3773,0,0,0,0,0,0,2.3727,2.3758,2.3776,2.3761,2.3771,2.3795,2.3783,2.3804,2.3809,2.3812,2.3843,2.3846,2.3829,2.3839,2.3857,2.3823,2.3852,2.3848,2.3817,2.3808,2.3802,2.3798,2.3896,0,0,0,0,0,2.3715,2.3714,2.3741,2.3724,2.3729,2.3755,2.3756,2.3775,2.3786,2.379,2.3805,2.3814,2.3813,2.3812,2.3813,2.3789,2.3792,2.3775,2.3768,2.3762,2.3758,2.3743,2.3734,2.3823,2.3823,2.3823,0,0,2.3689,2.3706,2.3703,2.3715,2.3725,2.3721,2.3758,2.3753,2.375,2.3789,2.3778,2.3789,2.3801,2.3782,2.3774,2.3789,2.3734,2.3758,2.3753,2.3752,2.3738,2.373,2.3722,2.382,2.3821,2.3821,0,0,2.3638,2.3652,2.3639,2.3648,2.3663,2.3681,2.3677,2.3698,2.3707,2.3697,2.3726,2.3721,2.372,2.3726,2.3729,2.3679,2.37,2.3679,2.3642,2.3627,2.362,2.3614,2.3592,2.3585,2.3675,2.3675,2.3675,0,2.3603,2.36,2.3629,2.3621,2.3624,2.3661,2.3646,2.3653,2.3667,2.3668,2.3685,2.3682,2.3693,2.3674,2.3662,2.3664,2.3659,2.3676,2.3619,2.3613,2.3607,2.3588,2.358,2.3672,2.3672,2.3672,2.3673,0,2.3554,2.3551,2.3538,2.3551,2.3553,2.3542,2.3568,2.3566,2.3584,2.3599,2.3586,2.36,2.3603,2.36,2.3618,2.3583,2.3592,2.3614,2.3643,2.3596,2.3577,2.357,2.3668,2.3669,2.367,2.367,0,0,2.3472,2.3501,2.3496,2.3501,2.3519,2.3517,2.3506,2.351,2.3506,2.3514,2.3504,2.3501,2.3521,2.3524,2.3543,2.353,2.3485,2.3553,2.3553,2.3537,2.3444,2.3425,2.3416,2.35,2.3499,2.3498,2.3441,0,2.3423,2.3408,2.3433,2.3411,2.3406,2.344,2.3431,2.344,2.3453,2.345,2.3464,2.3461,2.3489,2.349,2.3479,2.3493,2.3466,2.3498,2.3487,2.3487,2.348,2.3407,2.3388,2.3334,2.3435,2.3434,2.3433,0,2.3364,2.3369,2.3346,2.3364,2.3363,2.3354,2.3358,2.3356,2.3366,2.3376,2.3379,2.3401,2.3389,2.342,2.3402,2.3423,2.342,2.3426,2.3425,2.3422,2.3455,2.3399,2.3318,2.3308,2.3423,2.3423,2.3424,0,2.3302,2.3304,2.329,2.3293,2.3315,2.3307,2.3315,2.3327,2.3327,2.333,2.3329,2.3331,2.3331,2.3331,2.3351,2.3372,2.333,2.3363,2.3335,2.3335,2.3323,2.3323,2.3237,2.3326,2.3327,2.3327,2.3327,0,2.3243,2.3227,2.3262,2.3253,2.3235,2.3264,2.3244,2.3256,2.3266,2.3257,2.3288,2.3279,2.3309,2.3303,2.3319,2.33,2.3301,2.3306,2.331,2.3302,2.3301,2.3299,2.3301,2.3325,2.3325,2.3325,2.3326,0,2.317,2.3194,2.318,2.3201,2.3206,2.3191,2.3208,2.3199,2.3215,2.3204,2.3203,2.3226,2.3221,2.3242,2.324,2.3251,2.3222,2.3234,2.3218,2.322,2.3191,2.3192,2.3097,2.3085,2.3186,2.3185,2.3184,0,2.3129,2.3117,2.3137,2.3134,2.3141,2.3137,2.3136,2.3164,2.3162,2.3172,2.3161,2.3158,2.3156,2.3145,2.316,2.3158,2.3168,2.3135,2.3168,2.3158,2.3163,2.3162,2.3159,2.3127,2.3126,2.3125,2.3124,0,2.3053,2.3065,2.3064,2.3066,2.3065,2.3068,2.3073,2.3069,2.3098,2.3094,2.3089,2.3088,2.3085,2.3081,2.3081,2.3088,2.3109,2.3114,2.3107,2.3097,2.3087,2.3088,2.3196,2.3116,2.3116,2.3117,2.3118,2.3118,2.2993,2.2982,2.2994,2.2991,2.2998,2.3002,2.2993,2.3008,2.3004,2.3005,2.3021,2.3012,2.302,2.3023,2.3027,2.3019,2.3034,2.3025,2.3021,2.3018,2.3011,2.3091,2.302,2.302,2.302,2.302,2.3021,0,2.2915,2.2924,2.2921,2.2927,2.2924,2.2947,2.2953,2.2948,2.294,2.2947,2.2945,2.2937,2.2932,2.2947,2.2944,2.2934,2.2943,2.2932,2.2931,2.2931,2.3,2.3005,2.2924,2.2924,2.2924,2.2924,2.2924,2.2924,2.2874,2.2857,2.287,2.2855,2.2865,2.2856,2.2857,2.2859,2.2864,2.2855,2.2851,2.2862,2.287,2.2868,2.2863,2.2868,2.2863,2.2847,2.2854,2.2918,2.2927,2.2936,2.294,2.2847,2.2847,2.2786,2.2786,2.2785]}]]